Archiv-/Tagesdaten

--Timestamp---	Temp	Chill	HIndex	Humid	Dewpt	Wind	HiWind	WindDir	Rain	Barom	        Solar	ET	UV
--------------	----	-----	------	-----	-----	----	------	-------	----	-----	        -----	--	--
20081015 00:05	13.8	13.8	13.8	93	12.7	0	2	22	0.00	1019.712	0	0.000	0
20081015 00:10	13.8	13.8	13.8	93	12.7	0	2	22	0.00	1019.712	0	0.000	0
20081015 00:15	13.8	13.8	13.8	93	12.7	0	0	22	0.00	1019.678	0	0.000	0
20081015 00:20	13.8	13.8	13.8	93	12.7	0	0	22	0.00	1019.543	0	0.000	0
20081015 00:25	13.8	13.8	13.8	93	12.7	0	0	22	0.00	1019.475	0	0.000	0
20081015 00:30	13.8	13.8	13.8	93	12.7	0	0	22	0.00	1019.509	0	0.000	0
20081015 00:35	13.7	13.7	13.7	93	12.6	0	0	22	0.00	1019.441	0	0.000	0
20081015 00:40	13.6	13.6	13.6	93	12.4	0	0	22	0.00	1019.577	0	0.000	0
20081015 00:45	13.4	13.4	13.4	93	12.3	0	0	22	0.00	1019.577	0	0.000	0
20081015 00:50	13.3	13.3	13.3	93	12.2	0	0	22	0.00	1019.543	0	0.000	0
20081015 00:55	13.2	13.2	13.2	93	12.1	0	0	22	0.00	1019.475	0	0.000	0
20081015 01:00	13.1	13.1	13.1	93	12.0	0	0	22	0.00	1019.509	0	0.000	0
20081015 01:05	13.1	13.1	13.1	93	11.9	0	0	22	0.00	1019.306	0	0.000	0
20081015 01:10	12.9	12.9	12.9	93	11.8	0	0	22	0.00	1019.306	0	0.000	0
20081015 01:15	12.9	12.9	12.9	93	11.8	0	0	22	0.00	1019.340	0	0.000	0
20081015 01:20	12.9	12.9	12.9	93	11.8	0	0	22	0.00	1019.374	0	0.000	0
20081015 01:25	12.8	12.8	12.8	93	11.7	0	0	22	0.00	1019.340	0	0.000	0
20081015 01:30	12.8	12.8	12.8	93	11.7	0	2	22	0.00	1019.374	0	0.000	0
20081015 01:35	12.8	12.8	12.8	93	11.7	0	0	22	0.00	1019.340	0	0.000	0
20081015 01:40	12.8	12.8	12.8	93	11.7	0	0	22	0.00	1019.340	0	0.000	0
20081015 01:45	12.9	12.9	12.9	93	11.8	0	0	22	0.00	1019.306	0	0.000	0
20081015 01:50	12.9	12.9	12.9	94	12.0	0	0	22	0.00	1019.306	0	0.000	0
20081015 01:55	12.9	12.9	12.9	93	11.8	0	0	22	0.00	1019.407	0	0.000	0
20081015 02:00	12.8	12.8	12.8	93	11.7	0	0	22	0.00	1019.441	0	0.000	0
20081015 02:05	12.8	12.8	12.8	93	11.7	0	0	22	0.00	1019.645	0	0.000	0
20081015 02:10	12.8	12.8	12.8	93	11.7	0	0	22	0.00	1019.645	0	0.000	0
20081015 02:15	12.8	12.8	12.8	94	11.8	0	0	22	0.00	1019.645	0	0.000	0
20081015 02:20	12.8	12.8	12.8	94	11.8	0	0	22	0.00	1019.611	0	0.000	0
20081015 02:25	12.8	12.8	12.8	94	11.9	0	0	22	0.00	1019.645	0	0.000	0
20081015 02:30	12.9	12.9	12.9	94	11.9	0	0	22	0.00	1019.611	0	0.000	0
20081015 02:35	12.9	12.9	12.9	94	12.0	0	0	22	0.00	1019.577	0	0.000	0
20081015 02:40	12.9	12.9	12.9	94	12.0	0	0	22	0.00	1019.577	0	0.000	0
20081015 02:45	12.9	12.9	12.9	94	12.0	0	0	22	0.00	1019.543	0	0.000	0
20081015 02:50	13.0	13.0	13.0	94	12.1	0	0	22	0.00	1019.543	0	0.000	0
20081015 02:55	13.0	13.0	13.0	94	12.1	0	0	22	0.00	1019.475	0	0.000	0
20081015 03:00	13.1	13.1	13.1	94	12.1	0	0	22	0.00	1019.407	0	0.000	0
20081015 03:05	13.1	13.1	13.1	94	12.1	0	0	22	0.00	1019.340	0	0.000	0
20081015 03:10	13.1	13.1	13.1	94	12.1	0	0	22	0.00	1019.238	0	0.000	0
20081015 03:15	13.0	13.0	13.0	94	12.1	0	0	22	0.00	1019.272	0	0.000	0
20081015 03:20	13.0	13.0	13.0	94	12.1	0	0	22	0.00	1019.238	0	0.000	0
20081015 03:25	13.0	13.0	13.0	94	12.1	0	0	22	0.00	1019.238	0	0.000	0
20081015 03:30	12.9	12.9	12.9	94	12.0	0	0	22	0.00	1019.340	0	0.000	0
20081015 03:35	12.9	12.9	12.9	94	12.0	0	0	22	0.00	1019.238	0	0.000	0
20081015 03:40	12.9	12.9	12.9	94	12.0	0	0	22	0.00	1019.204	0	0.000	0
20081015 03:45	12.9	12.9	12.9	94	11.9	0	0	22	0.00	1019.170	0	0.000	0
20081015 03:50	12.9	12.9	12.9	94	11.9	0	3	90	0.00	1018.933	0	0.000	0
20081015 03:55	12.9	12.9	12.9	94	11.9	0	2	90	0.00	1018.899	0	0.000	0
20081015 04:00	12.8	12.8	12.8	94	11.9	0	0	90	0.00	1019.069	0	0.000	0
20081015 04:05	12.8	12.8	12.8	94	11.8	0	0	90	0.00	1019.137	0	0.000	0
20081015 04:10	12.7	12.7	12.7	94	11.7	0	0	90	0.00	1019.272	0	0.000	0
20081015 04:15	12.6	12.6	12.6	94	11.7	0	0	90	0.00	1019.170	0	0.000	0
20081015 04:20	12.7	12.7	12.7	94	11.7	0	2	90	0.00	1019.103	0	0.000	0
20081015 04:25	12.7	12.7	12.7	94	11.7	0	5	202	0.00	1019.103	0	0.000	0
20081015 04:30	12.7	12.7	12.7	94	11.7	2	6	202	0.00	1019.035	0	0.000	0
20081015 04:35	12.6	12.6	12.6	94	11.7	0	2	202	0.00	1019.001	0	0.000	0
20081015 04:40	12.6	12.6	12.6	94	11.7	0	3	202	0.00	1018.933	0	0.000	0
20081015 04:45	12.5	12.5	12.5	94	11.6	0	2	180	0.00	1018.866	0	0.000	0
20081015 04:50	12.4	12.4	12.4	94	11.5	0	0	180	0.00	1019.035	0	0.000	0
20081015 04:55	12.4	12.4	12.4	94	11.5	0	2	180	0.00	1018.933	0	0.000	0
20081015 05:00	12.5	12.5	12.5	94	11.6	0	5	180	0.00	1018.866	0	0.000	0
20081015 05:05	12.6	12.6	12.6	94	11.6	0	2	180	0.00	1018.899	0	0.000	0
20081015 05:10	12.6	12.6	12.6	94	11.6	0	0	180	0.00	1018.866	0	0.000	0
20081015 05:15	12.6	12.6	12.6	94	11.6	0	2	180	0.00	1018.899	0	0.000	0
20081015 05:20	12.5	12.5	12.5	94	11.6	0	2	180	0.00	1018.764	0	0.000	0
20081015 05:25	12.5	12.5	12.5	94	11.6	0	0	180	0.00	1018.730	0	0.000	0
20081015 05:30	12.5	12.5	12.5	94	11.6	0	2	180	0.00	1018.730	0	0.000	0
20081015 05:35	12.5	12.5	12.5	94	11.6	0	0	180	0.00	1018.730	0	0.000	0
20081015 05:40	12.5	12.5	12.5	94	11.6	0	0	180	0.00	1018.696	0	0.000	0
20081015 05:45	12.5	12.5	12.5	94	11.6	0	0	180	0.00	1018.764	0	0.000	0
20081015 05:50	12.5	12.5	12.5	94	11.6	0	0	180	0.00	1018.764	0	0.000	0
20081015 05:55	12.5	12.5	12.5	94	11.6	0	0	180	0.00	1018.866	0	0.000	0
20081015 06:00	12.4	12.4	12.4	94	11.5	2	5	292	0.00	1019.103	0	0.000	0
20081015 06:05	12.4	12.4	12.4	94	11.4	0	2	292	0.00	1019.238	0	0.000	0
20081015 06:10	12.4	12.4	12.4	94	11.4	0	0	292	0.00	1019.204	0	0.000	0
20081015 06:15	12.4	12.4	12.4	94	11.4	0	0	292	0.00	1019.204	0	0.000	0
20081015 06:20	12.4	12.4	12.4	94	11.5	0	0	292	0.00	1019.103	0	0.000	0
20081015 06:25	12.5	12.5	12.5	94	11.6	0	0	292	0.00	1019.001	0	0.000	0
20081015 06:30	12.6	12.6	12.6	94	11.6	0	0	292	0.00	1019.001	0	0.000	0
20081015 06:35	12.6	12.6	12.6	94	11.7	0	0	292	0.00	1019.103	0	0.000	0
20081015 06:40	12.7	12.7	12.7	94	11.7	0	2	292	0.00	1019.035	0	0.000	0
20081015 06:45	12.7	12.7	12.7	94	11.7	0	0	292	0.00	1019.103	0	0.000	0
20081015 06:50	12.7	12.7	12.7	94	11.7	0	3	225	0.00	1018.933	0	0.000	0
20081015 06:55	12.7	12.7	12.7	94	11.7	0	0	225	0.00	1018.764	0	0.000	0
20081015 07:00	12.6	12.6	12.6	94	11.7	0	2	225	0.00	1018.629	0	0.000	0
20081015 07:05	12.6	12.6	12.6	94	11.6	0	3	180	0.00	1018.866	0	0.000	0
20081015 07:10	12.5	12.5	12.5	94	11.6	0	2	180	0.00	1018.866	0	0.000	0
20081015 07:15	12.4	12.4	12.4	94	11.5	0	2	180	0.00	1018.899	0	0.000	0
20081015 07:20	12.4	12.4	12.4	94	11.5	0	2	180	0.00	1019.001	0	0.000	0
20081015 07:25	12.4	12.4	12.4	94	11.4	0	3	180	0.00	1018.933	0	0.000	0
20081015 07:30	12.4	12.4	12.4	94	11.5	0	5	180	0.00	1018.933	0	0.000	0
20081015 07:35	12.4	12.4	12.4	94	11.5	0	2	180	0.00	1018.967	5	0.000	0
20081015 07:40	12.4	12.4	12.4	94	11.5	0	0	180	0.00	1019.001	6	0.000	0
20081015 07:45	12.4	12.4	12.4	94	11.4	0	3	180	0.00	1019.103	7	0.000	0
20081015 07:50	12.4	12.4	12.4	94	11.4	0	3	180	0.00	1019.204	7	0.000	0
20081015 07:55	12.4	12.4	12.4	94	11.4	2	5	180	0.00	1019.238	13	0.000	0
20081015 08:00	12.4	12.4	12.4	94	11.4	2	5	180	0.00	1019.238	19	0.000	0
20081015 08:05	12.4	12.4	12.4	94	11.4	3	8	225	0.00	1019.340	26	0.000	0
20081015 08:10	12.4	12.4	12.4	94	11.4	2	5	157	0.00	1019.374	22	0.000	0
20081015 08:15	12.4	12.4	12.4	94	11.5	2	8	202	0.00	1019.340	16	0.000	0
20081015 08:20	12.5	12.5	12.5	94	11.6	0	3	202	0.00	1019.306	17	0.000	0
20081015 08:25	12.6	12.6	12.6	94	11.7	0	6	202	0.00	1019.238	24	0.000	0
20081015 08:30	12.7	12.7	12.7	94	11.7	2	5	202	0.00	1019.204	26	0.000	0
20081015 08:35	12.7	12.7	12.7	94	11.8	0	5	202	0.00	1019.204	28	0.000	0
20081015 08:40	12.8	12.8	12.8	94	11.8	3	8	202	0.00	1019.272	31	0.000	0
20081015 08:45	12.8	12.8	12.8	94	11.8	3	8	202	0.00	1019.238	36	0.000	0
20081015 08:50	12.7	12.7	12.7	94	11.8	3	11	225	0.00	1019.340	37	0.000	0
20081015 08:55	12.7	12.7	12.7	94	11.8	3	11	202	0.00	1019.306	41	0.000	0
20081015 09:00	12.7	12.7	12.7	94	11.8	6	14	225	0.00	1019.340	42	0.020	0
20081015 09:05	12.7	12.7	12.7	94	11.8	5	14	202	0.00	1019.374	50	0.000	0
20081015 09:10	12.7	12.7	12.7	94	11.8	3	11	202	0.00	1019.374	47	0.000	0
20081015 09:15	12.7	12.7	12.7	94	11.8	5	11	180	0.00	1019.407	42	0.000	0
20081015 09:20	12.7	12.7	12.7	94	11.8	5	11	202	0.00	1019.543	44	0.000	0
20081015 09:25	12.7	12.7	12.7	94	11.8	3	10	225	0.00	1019.543	48	0.000	0
20081015 09:30	12.8	12.8	12.8	94	11.8	5	11	225	0.00	1019.577	59	0.000	0
20081015 09:35	12.8	12.8	12.8	94	11.9	3	10	247	0.00	1019.611	67	0.000	0
20081015 09:40	12.9	12.9	12.9	94	11.9	3	6	225	0.00	1019.645	79	0.000	0
20081015 09:45	12.9	12.9	12.9	94	12.0	3	10	202	0.00	1019.678	95	0.000	0
20081015 09:50	13.1	13.1	13.1	94	12.1	3	10	225	0.00	1019.611	115	0.000	0
20081015 09:55	13.1	13.1	13.1	94	12.2	3	11	225	0.00	1019.678	119	0.000	1
20081015 10:00	13.2	13.2	13.2	93	12.1	3	8	225	0.00	1019.746	114	0.040	1
20081015 10:05	13.3	13.3	13.3	93	12.2	2	5	247	0.00	1019.915	103	0.000	1
20081015 10:10	13.4	13.4	13.4	93	12.3	3	10	247	0.00	1019.848	110	0.000	1
20081015 10:15	13.6	13.6	13.6	93	12.4	2	6	247	0.00	1019.949	125	0.000	1
20081015 10:20	13.7	13.7	13.7	93	12.6	3	6	247	0.00	1019.882	108	0.000	1
20081015 10:25	13.8	13.8	13.8	93	12.7	3	8	247	0.00	1020.017	126	0.000	1
20081015 10:30	14.0	14.0	14.0	93	12.9	3	14	270	0.00	1019.949	95	0.000	1
20081015 10:35	14.1	14.1	14.1	92	12.8	2	5	247	0.00	1019.814	99	0.000	1
20081015 10:40	14.2	14.2	14.2	92	12.9	2	8	247	0.00	1019.814	140	0.000	1
20081015 10:45	14.4	14.4	14.4	92	13.2	3	11	270	0.00	1019.746	152	0.000	1
20081015 10:50	14.7	14.7	14.7	90	13.0	3	8	247	0.00	1019.678	123	0.000	1
20081015 10:55	14.9	14.9	14.9	89	13.1	3	8	247	0.00	1019.509	117	0.000	1
20081015 11:00	15.0	15.0	15.0	88	13.0	5	10	247	0.00	1019.611	195	0.060	1
20081015 11:05	15.3	15.3	15.3	88	13.3	5	11	247	0.00	1019.543	214	0.000	1
20081015 11:10	15.6	15.6	15.6	87	13.4	3	10	270	0.00	1019.645	182	0.000	1
20081015 11:15	15.7	15.7	15.7	86	13.4	6	11	270	0.00	1019.543	169	0.000	1
20081015 11:20	15.7	15.7	15.7	85	13.2	6	13	270	0.00	1019.543	154	0.000	1
20081015 11:25	15.7	15.7	15.7	85	13.2	5	11	292	0.00	1019.543	258	0.000	1
20081015 11:30	15.9	15.9	15.9	86	13.6	5	10	292	0.00	1019.509	239	0.000	1
20081015 11:35	16.1	16.1	16.1	84	13.3	6	16	270	0.00	1019.509	203	0.000	1
20081015 11:40	16.0	16.0	16.0	84	13.3	6	13	292	0.00	1019.611	200	0.000	1
20081015 11:45	15.9	15.9	15.9	84	13.2	6	14	292	0.00	1019.543	143	0.000	1
20081015 11:50	15.8	15.8	15.8	84	13.1	5	11	292	0.00	1019.543	171	0.000	1
20081015 11:55	15.7	15.7	15.7	84	13.0	8	14	292	0.00	1019.678	232	0.000	1
20081015 12:00	15.8	15.8	15.8	84	13.1	10	18	292	0.00	1019.611	340	0.100	2
20081015 12:05	15.8	15.8	15.8	84	13.1	10	18	292	0.00	1019.577	352	0.000	2
20081015 12:10	15.8	15.8	15.8	84	13.1	6	11	292	0.00	1019.611	392	0.000	2
20081015 12:15	16.1	16.1	16.1	84	13.3	3	8	292	0.00	1019.577	247	0.000	2
20081015 12:20	16.2	16.2	16.2	83	13.3	6	13	292	0.00	1019.543	269	0.000	2
20081015 12:25	16.2	16.2	16.2	81	13.0	8	16	270	0.00	1019.577	362	0.000	2
20081015 12:30	16.4	16.4	16.4	80	12.9	6	16	270	0.00	1019.475	458	0.000	2
20081015 12:35	16.7	16.7	16.7	80	13.2	6	16	247	0.00	1019.170	429	0.000	2
20081015 12:40	16.8	16.8	16.8	79	13.1	6	14	270	0.00	1019.238	504	0.000	2
20081015 12:45	16.9	16.9	16.9	79	13.3	3	8	270	0.00	1019.137	420	0.000	2
20081015 12:50	17.2	17.2	17.2	78	13.3	5	11	270	0.00	1019.069	487	0.000	2
20081015 12:55	17.2	17.2	17.2	77	13.2	5	11	270	0.00	1018.967	291	0.000	2
20081015 13:00	17.2	17.2	17.2	78	13.3	5	11	270	0.00	1018.967	231	0.160	2
20081015 13:05	17.3	17.3	17.3	78	13.4	5	16	270	0.00	1018.798	225	0.000	2
20081015 13:10	17.3	17.3	17.3	76	13.0	5	11	270	0.00	1018.696	206	0.000	2
20081015 13:15	17.3	17.3	17.3	77	13.2	2	6	270	0.00	1018.662	210	0.000	2
20081015 13:20	17.3	17.3	17.3	77	13.3	6	11	270	0.00	1018.493	202	0.000	2
20081015 13:25	17.3	17.3	17.3	77	13.3	3	8	270	0.00	1018.324	140	0.000	2
20081015 13:30	17.3	17.3	17.3	76	13.0	5	10	270	0.00	1018.358	141	0.000	2
20081015 13:35	17.3	17.3	17.3	77	13.3	5	10	270	0.00	1018.222	322	0.000	2
20081015 13:40	17.6	17.6	17.6	76	13.3	5	8	247	0.00	1018.154	446	0.000	2
20081015 13:45	18.0	18.0	18.0	74	13.3	6	10	270	0.00	1018.053	434	0.000	2
20081015 13:50	18.2	18.2	18.2	74	13.5	6	16	270	0.00	1017.951	304	0.000	2
20081015 13:55	18.1	18.1	18.1	74	13.3	6	11	292	0.00	1017.951	150	0.000	2
20081015 14:00	18.0	18.0	18.0	73	13.1	6	11	270	0.00	1017.917	326	0.120	2
20081015 14:05	18.2	18.2	18.2	74	13.5	5	8	292	0.00	1017.782	431	0.000	2
20081015 14:10	18.2	18.2	18.2	73	13.3	6	14	270	0.00	1017.782	127	0.000	2
20081015 14:15	18.2	18.2	18.2	72	13.1	6	14	270	0.00	1017.714	274	0.000	2
20081015 14:20	18.4	18.4	18.4	71	13.1	6	14	247	0.00	1017.647	426	0.000	2
20081015 14:25	18.8	18.8	18.8	71	13.4	6	11	247	0.00	1017.409	368	0.000	2
20081015 14:30	19.1	19.1	19.1	70	13.5	5	16	270	0.00	1017.342	410	0.000	2
20081015 14:35	19.1	19.1	19.1	68	13.1	6	16	292	0.00	1017.274	390	0.000	2
20081015 14:40	19.1	19.1	19.1	70	13.5	5	11	292	0.00	1017.206	401	0.000	2
20081015 14:45	19.1	19.1	19.1	69	13.2	3	11	292	0.00	1017.139	305	0.000	2
20081015 14:50	18.9	18.9	18.9	69	13.1	6	13	292	0.00	1017.206	195	0.000	1
20081015 14:55	18.7	18.7	18.7	71	13.3	6	13	292	0.00	1017.206	229	0.000	1
20081015 15:00	18.6	18.6	18.6	71	13.2	3	10	292	0.00	1017.240	259	0.160	1
20081015 15:05	18.6	18.6	18.6	71	13.2	2	5	270	0.00	1017.240	216	0.000	1
20081015 15:10	18.8	18.8	18.8	71	13.4	3	8	270	0.00	1017.105	286	0.000	1
20081015 15:15	18.9	18.9	18.9	69	13.1	5	11	292	0.00	1017.003	296	0.000	1
20081015 15:20	19.0	19.0	19.0	69	13.2	6	16	292	0.00	1017.003	160	0.000	1
20081015 15:25	18.8	18.8	18.8	70	13.2	8	16	292	0.00	1017.037	175	0.000	1
20081015 15:30	18.6	18.6	18.6	71	13.2	5	14	292	0.00	1016.935	136	0.000	1
20081015 15:35	18.5	18.5	18.5	72	13.4	0	3	292	0.00	1016.834	84	0.000	1
20081015 15:40	18.4	18.4	18.4	72	13.2	2	5	292	0.00	1016.766	72	0.000	0
20081015 15:45	18.3	18.3	18.3	73	13.4	0	3	292	0.00	1016.834	81	0.000	1
20081015 15:50	18.3	18.3	18.3	73	13.4	2	5	292	0.00	1016.732	104	0.000	1
20081015 15:55	18.3	18.3	18.3	73	13.4	3	6	292	0.00	1016.732	109	0.000	1
20081015 16:00	18.4	18.4	18.4	73	13.5	0	2	292	0.00	1016.597	119	0.080	1
20081015 16:05	18.5	18.5	18.5	71	13.1	2	5	292	0.00	1016.563	110	0.000	1
20081015 16:10	18.7	18.7	18.7	72	13.5	3	8	292	0.00	1016.563	100	0.000	1
20081015 16:15	18.7	18.7	18.7	73	13.8	0	5	292	0.00	1016.631	92	0.000	0
20081015 16:20	18.7	18.7	18.7	73	13.7	0	0	292	0.00	1016.563	102	0.000	0
20081015 16:25	18.6	18.6	18.6	74	13.9	0	0	292	0.00	1016.529	102	0.000	0
20081015 16:30	18.6	18.6	18.6	75	14.0	0	2	292	0.00	1016.597	117	0.000	0
20081015 16:35	18.6	18.6	18.6	76	14.2	0	2	292	0.00	1016.563	125	0.000	0
20081015 16:40	18.5	18.5	18.5	73	13.6	0	3	337	0.00	1016.529	92	0.000	0
20081015 16:45	18.5	18.5	18.5	75	14.0	2	5	292	0.00	1016.394	78	0.000	0
20081015 16:50	18.5	18.5	18.5	71	13.1	6	10	292	0.00	1016.394	69	0.000	0
20081015 16:55	18.6	18.6	18.6	71	13.2	5	11	292	0.00	1016.360	78	0.000	0
20081015 17:00	18.6	18.6	18.6	71	13.2	5	10	292	0.00	1016.326	75	0.060	0
20081015 17:05	18.6	18.6	18.6	71	13.2	3	6	315	0.00	1016.326	59	0.000	0
20081015 17:10	18.6	18.6	18.6	72	13.4	2	6	292	0.00	1016.360	63	0.000	0
20081015 17:15	18.5	18.5	18.5	71	13.1	2	5	292	0.00	1016.258	60	0.000	0
20081015 17:20	18.4	18.4	18.4	72	13.3	2	5	292	0.00	1016.292	51	0.000	0
20081015 17:25	18.4	18.4	18.4	72	13.2	2	5	292	0.00	1016.258	46	0.000	0
20081015 17:30	18.3	18.3	18.3	72	13.2	0	3	292	0.00	1016.190	31	0.000	0
20081015 17:35	18.2	18.2	18.2	72	13.1	0	2	292	0.00	1016.190	29	0.000	0
20081015 17:40	18.1	18.1	18.1	72	13.0	2	5	292	0.00	1016.190	28	0.000	0
20081015 17:45	18.0	18.0	18.0	72	12.9	0	2	292	0.00	1016.123	21	0.000	0
20081015 17:50	17.9	17.9	17.9	72	12.8	0	2	292	0.00	1016.089	18	0.000	0
20081015 17:55	17.8	17.8	17.8	73	12.9	0	0	292	0.00	1016.055	18	0.000	0
20081015 18:00	17.6	17.6	17.6	73	12.7	0	0	292	0.00	1016.055	16	0.020	0
20081015 18:05	17.4	17.4	17.4	74	12.8	0	0	292	0.00	1016.055	11	0.000	0
20081015 18:10	17.3	17.3	17.3	74	12.6	0	2	292	0.00	1016.021	8	0.000	0
20081015 18:15	17.1	17.1	17.1	75	12.6	0	2	292	0.00	1016.021	4	0.000	0
20081015 18:20	16.9	16.9	16.9	76	12.7	0	0	292	0.00	1016.021	0	0.000	0
20081015 18:25	16.8	16.8	16.8	77	12.7	0	0	292	0.00	1016.156	0	0.000	0
20081015 18:30	16.6	16.6	16.6	77	12.5	0	0	292	0.00	1016.224	0	0.000	0
20081015 18:35	16.3	16.3	16.3	78	12.5	0	0	292	0.00	1016.190	0	0.000	0
20081015 18:40	16.2	16.2	16.2	78	12.3	0	0	292	0.00	1016.123	0	0.000	0
20081015 18:45	15.9	15.9	15.9	79	12.3	0	0	292	0.00	1016.156	0	0.000	0
20081015 18:50	15.8	15.8	15.8	80	12.3	0	0	292	0.00	1016.190	0	0.000	0
20081015 18:55	15.7	15.7	15.7	81	12.4	0	0	292	0.00	1016.360	0	0.000	0
20081015 19:00	15.6	15.6	15.6	82	12.5	0	0	292	0.00	1016.394	0	0.000	0
20081015 19:05	15.4	15.4	15.4	83	12.6	0	0	292	0.00	1016.292	0	0.000	0
20081015 19:10	15.3	15.3	15.3	83	12.5	0	0	292	0.00	1016.326	0	0.000	0
20081015 19:15	15.3	15.3	15.3	83	12.4	0	0	292	0.00	1016.326	0	0.000	0
20081015 19:20	15.2	15.2	15.2	83	12.3	0	0	292	0.00	1016.529	0	0.000	0
20081015 19:25	15.0	15.0	15.0	84	12.3	0	2	180	0.00	1016.563	0	0.000	0
20081015 19:30	15.0	15.0	15.0	84	12.3	0	2	180	0.00	1016.563	0	0.000	0
20081015 19:35	14.9	14.9	14.9	84	12.3	0	2	180	0.00	1016.529	0	0.000	0
20081015 19:40	14.8	14.8	14.8	83	12.0	0	3	180	0.00	1016.563	0	0.000	0
20081015 19:45	14.7	14.7	14.7	83	11.9	0	2	180	0.00	1016.461	0	0.000	0
20081015 19:50	14.6	14.6	14.6	83	11.8	0	2	180	0.00	1016.529	0	0.000	0
20081015 19:55	14.6	14.6	14.6	83	11.7	0	2	180	0.00	1016.427	0	0.000	0
20081015 20:00	14.5	14.5	14.5	82	11.5	0	2	180	0.00	1016.427	0	0.020	0
20081015 20:05	14.5	14.5	14.5	82	11.5	0	3	180	0.00	1016.461	0	0.000	0
20081015 20:10	14.5	14.5	14.5	81	11.3	3	8	202	0.00	1016.597	0	0.000	0
20081015 20:15	14.5	14.5	14.5	80	11.1	5	10	202	0.00	1016.495	0	0.000	0
20081015 20:20	14.6	14.6	14.6	80	11.1	3	10	202	0.00	1016.461	0	0.000	0
20081015 20:25	14.5	14.5	14.5	80	11.1	2	6	202	0.00	1016.461	0	0.000	0
20081015 20:30	14.5	14.5	14.5	80	11.1	3	6	225	0.00	1016.461	0	0.000	0
20081015 20:35	14.4	14.4	14.4	80	11.0	2	5	225	0.00	1016.495	0	0.000	0
20081015 20:40	14.4	14.4	14.4	80	11.0	3	6	225	0.00	1016.394	0	0.000	0
20081015 20:45	14.4	14.4	14.4	80	11.0	3	8	225	0.00	1016.360	0	0.000	0
20081015 20:50	14.3	14.3	14.3	80	10.9	2	5	180	0.00	1016.360	0	0.000	0
20081015 20:55	14.3	14.3	14.3	80	10.9	2	5	180	0.00	1016.427	0	0.000	0
20081015 21:00	14.3	14.3	14.3	79	10.7	2	5	180	0.00	1016.394	0	0.020	0
20081015 21:05	14.3	14.3	14.3	80	10.9	2	6	202	0.00	1016.326	0	0.000	0
20081015 21:10	14.2	14.2	14.2	80	10.8	0	5	180	0.00	1016.292	0	0.000	0
20081015 21:15	14.1	14.1	14.1	80	10.7	0	5	180	0.00	1016.394	0	0.000	0
20081015 21:20	13.9	13.9	13.9	81	10.7	0	5	180	0.00	1016.360	0	0.000	0
20081015 21:25	13.8	13.8	13.8	81	10.6	2	6	180	0.00	1016.394	0	0.000	0
20081015 21:30	13.8	13.8	13.8	81	10.6	2	6	180	0.00	1016.326	0	0.000	0
20081015 21:35	13.7	13.7	13.7	81	10.5	2	8	202	0.00	1016.292	0	0.000	0
20081015 21:40	13.7	13.7	13.7	81	10.5	3	10	202	0.00	1016.326	0	0.000	0
20081015 21:45	13.6	13.6	13.6	82	10.6	5	11	202	0.00	1016.326	0	0.000	0
20081015 21:50	13.5	13.5	13.5	82	10.5	5	10	202	0.00	1016.258	0	0.000	0
20081015 21:55	13.4	13.4	13.4	82	10.4	5	11	202	0.00	1016.258	0	0.000	0
20081015 22:00	13.3	13.3	13.3	83	10.5	6	11	202	0.00	1016.190	0	0.020	0
20081015 22:05	13.3	13.3	13.3	83	10.5	5	10	202	0.00	1016.089	0	0.000	0
20081015 22:10	13.2	13.2	13.2	83	10.4	5	10	202	0.00	1016.156	0	0.000	0
20081015 22:15	13.2	13.2	13.2	83	10.4	5	10	180	0.00	1016.156	0	0.000	0
20081015 22:20	13.2	13.2	13.2	83	10.4	3	11	180	0.00	1016.089	0	0.000	0
20081015 22:25	13.3	13.3	13.3	83	10.5	5	11	202	0.00	1016.055	0	0.000	0
20081015 22:30	13.2	13.2	13.2	83	10.4	3	8	202	0.00	1015.987	0	0.000	0
20081015 22:35	13.2	13.2	13.2	83	10.4	5	13	202	0.00	1015.953	0	0.000	0
20081015 22:40	13.2	13.2	13.2	83	10.4	6	11	202	0.00	1015.886	0	0.000	0
20081015 22:45	13.2	13.2	13.2	83	10.4	6	14	202	0.00	1015.818	0	0.000	0
20081015 22:50	13.2	13.2	13.2	83	10.4	5	11	202	0.00	1015.818	0	0.000	0
20081015 22:55	13.2	13.2	13.2	83	10.3	5	10	202	0.00	1015.750	0	0.000	0
20081015 23:00	13.1	13.1	13.1	83	10.2	3	8	225	0.00	1015.750	0	0.020	0
20081015 23:05	13.0	13.0	13.0	83	10.2	2	6	180	0.00	1015.547	0	0.000	0
20081015 23:10	12.9	12.9	12.9	83	10.1	3	8	202	0.00	1015.581	0	0.000	0
20081015 23:15	12.9	12.9	12.9	83	10.1	3	8	202	0.00	1015.547	0	0.000	0
20081015 23:20	12.8	12.8	12.8	83	10.0	2	5	202	0.00	1015.581	0	0.000	0
20081015 23:25	12.8	12.8	12.8	84	10.1	2	5	202	0.00	1015.479	0	0.000	0
20081015 23:30	12.7	12.7	12.7	84	10.1	3	6	202	0.00	1015.445	0	0.000	0
20081015 23:35	12.7	12.7	12.7	84	10.1	2	6	202	0.00	1015.276	0	0.000	0
20081015 23:40	12.8	12.8	12.8	84	10.1	5	10	202	0.00	1015.208	0	0.000	0
20081015 23:45	12.8	12.8	12.8	84	10.2	5	10	202	0.00	1015.208	0	0.000	0
20081015 23:50	12.9	12.9	12.9	84	10.2	5	11	180	0.00	1015.174	0	0.000	0
20081015 23:55	13.0	13.0	13.0	84	10.4	6	14	202	0.00	1015.107	0	0.000	0
20081015 24:00	13.1	13.1	13.1	83	10.2	3	10	180	0.00	1015.005	0	0.020	0



Please note the license to use and transfer of this data:
http://creativecommons.org/licenses/by-nc-sa/3.0/deed.en

Bitte beachten sie die Lizenz zur Verwertung und Weitergabe der Daten:
http://creativecommons.org/licenses/by-nc-sa/3.0/deed.de

zurück zur Übersicht der Archivdaten (Monats und Tagesdaten)

Cookies helfen bei der Bereitstellung von Inhalten. Durch die Nutzung dieser Seiten erklärst du dich damit einverstanden, dass Cookies auf deinem Rechner gespeichert werden. Weitere Information